Time,TemperatureF,DewpointF,PressureIn,WindDirection,WindDirectionDegrees,WindSpeedMPH,WindSpeedGustMPH,Humidity,HourlyPrecipIn,Conditions,Clouds,dailyrainin,SoftwareType,DateUTC
2013-05-05 00:04:00,48.9,40.3,30.02,ESE,112,0.0,-999.0,72,-99.99,,,0.00,Acu-Link.com,2013-05-05 04:04:00,
2013-05-05 00:19:00,48.2,40.0,30.02,NE,45,0.0,-999.0,73,-99.99,,,0.00,Acu-Link.com,2013-05-05 04:19:00,
2013-05-05 00:34:00,47.8,39.9,30.03,NE,45,0.0,-999.0,74,-99.99,,,0.00,Acu-Link.com,2013-05-05 04:34:00,
2013-05-05 00:49:00,47.5,39.6,30.03,SE,135,0.0,-999.0,74,-99.99,,,0.00,Acu-Link.com,2013-05-05 04:49:00,
2013-05-05 01:04:00,47.1,39.9,30.03,East,90,0.0,-999.0,76,-99.99,,,0.00,Acu-Link.com,2013-05-05 05:04:00,
2013-05-05 01:19:00,46.8,39.6,30.04,ESE,112,0.0,-999.0,76,-99.99,,,0.00,Acu-Link.com,2013-05-05 05:19:00,
2013-05-05 01:35:00,46.2,39.7,30.03,NE,45,0.0,-999.0,78,-99.99,,,0.00,Acu-Link.com,2013-05-05 05:35:00,
2013-05-05 01:50:00,45.9,39.8,30.03,East,90,0.0,-999.0,79,-99.99,,,0.00,Acu-Link.com,2013-05-05 05:50:00,
2013-05-05 02:05:00,45.3,39.5,30.03,NE,45,0.0,-999.0,80,-99.99,,,0.00,Acu-Link.com,2013-05-05 06:05:00,
2013-05-05 02:20:00,45.3,39.5,30.03,NE,45,0.0,-999.0,80,-99.99,,,0.00,Acu-Link.com,2013-05-05 06:20:00,
2013-05-05 02:35:00,44.8,39.3,30.03,ENE,67,0.0,-999.0,81,-99.99,,,0.00,Acu-Link.com,2013-05-05 06:35:00,
2013-05-05 02:50:00,44.2,39.1,30.03,NE,45,0.0,-999.0,82,-99.99,,,0.00,Acu-Link.com,2013-05-05 06:50:00,
2013-05-05 03:05:00,44.1,39.0,30.03,ESE,112,0.0,-999.0,82,-99.99,,,0.00,Acu-Link.com,2013-05-05 07:05:00,
2013-05-05 03:20:00,43.9,39.1,30.03,NE,45,0.0,-999.0,83,-99.99,,,0.00,Acu-Link.com,2013-05-05 07:20:00,
2013-05-05 03:35:00,43.5,39.0,30.04,NE,45,0.0,-999.0,84,-99.99,,,0.00,Acu-Link.com,2013-05-05 07:35:00,
2013-05-05 03:51:00,43.2,39.0,30.04,NNE,22,0.0,-999.0,85,-99.99,,,0.00,Acu-Link.com,2013-05-05 07:51:00,
2013-05-05 04:06:00,42.8,38.6,30.04,NE,45,0.0,-999.0,85,-99.99,,,0.00,Acu-Link.com,2013-05-05 08:06:00,
2013-05-05 04:21:00,42.6,38.7,30.04,NE,45,0.0,-999.0,86,-99.99,,,0.00,Acu-Link.com,2013-05-05 08:21:00,
2013-05-05 04:36:00,42.3,38.4,30.04,NE,45,0.0,-999.0,86,-99.99,,,0.00,Acu-Link.com,2013-05-05 08:36:00,
2013-05-05 04:51:00,41.7,38.1,30.04,NE,45,0.0,-999.0,87,-99.99,,,0.00,Acu-Link.com,2013-05-05 08:51:00,
2013-05-05 05:06:00,41.2,37.9,30.04,NE,45,0.0,-999.0,88,-99.99,,,0.00,Acu-Link.com,2013-05-05 09:06:00,
2013-05-05 05:21:00,40.8,37.8,30.04,NE,45,0.0,-999.0,89,-99.99,,,0.00,Acu-Link.com,2013-05-05 09:21:00,
2013-05-05 05:36:00,40.6,37.6,30.05,NE,45,0.0,-999.0,89,-99.99,,,0.00,Acu-Link.com,2013-05-05 09:36:00,
2013-05-05 05:51:00,40.3,37.6,30.06,NE,45,0.0,-999.0,90,-99.99,,,0.00,Acu-Link.com,2013-05-05 09:51:00,
2013-05-05 06:07:00,39.9,37.2,30.05,East,90,0.0,-999.0,90,-99.99,,,0.00,Acu-Link.com,2013-05-05 10:07:00,
2013-05-05 06:22:00,39.7,37.3,30.06,WNW,292,0.0,-999.0,91,-99.99,,,0.00,Acu-Link.com,2013-05-05 10:22:00,
2013-05-05 06:37:00,39.7,37.3,30.06,ENE,67,0.0,-999.0,91,-99.99,,,0.00,Acu-Link.com,2013-05-05 10:37:00,
2013-05-05 06:52:00,39.7,37.6,30.06,East,90,0.0,-999.0,92,-99.99,,,0.00,Acu-Link.com,2013-05-05 10:52:00,
2013-05-05 07:07:00,40.3,38.2,30.06,NE,45,0.0,-999.0,92,-99.99,,,0.00,Acu-Link.com,2013-05-05 11:07:00,
2013-05-05 07:22:00,41.9,39.7,30.07,WNW,292,0.0,-999.0,92,-99.99,,,0.00,Acu-Link.com,2013-05-05 11:22:00,
2013-05-05 07:37:00,44.8,40.9,30.08,West,270,0.0,-999.0,86,-99.99,,,0.00,Acu-Link.com,2013-05-05 11:37:00,
2013-05-05 07:52:00,45.5,41.0,30.07,West,270,0.0,-999.0,84,-99.99,,,0.00,Acu-Link.com,2013-05-05 11:52:00,
2013-05-05 08:07:00,46.0,41.1,30.07,West,270,0.0,-999.0,83,-99.99,,,0.00,Acu-Link.com,2013-05-05 12:07:00,
2013-05-05 08:22:00,47.5,41.3,30.03,West,270,2.7,-999.0,79,-99.99,,,0.00,Acu-Link.com,2013-05-05 12:22:00,
2013-05-05 08:38:00,49.8,41.5,30.00,West,270,4.2,-999.0,73,-99.99,,,0.00,Acu-Link.com,2013-05-05 12:38:00,
2013-05-05 08:53:00,52.7,41.7,29.99,West,270,3.7,-999.0,66,-99.99,,,0.00,Acu-Link.com,2013-05-05 12:53:00,
2013-05-05 09:08:00,54.3,41.6,30.04,West,270,3.7,-999.0,62,-99.99,,,0.00,Acu-Link.com,2013-05-05 13:08:00,
2013-05-05 09:23:00,56.3,41.7,30.05,SW,225,2.2,-999.0,58,-99.99,,,0.00,Acu-Link.com,2013-05-05 13:23:00,
2013-05-05 09:38:00,59.0,43.8,30.05,ENE,67,0.0,-999.0,57,-99.99,,,0.00,Acu-Link.com,2013-05-05 13:38:00,
2013-05-05 09:53:00,60.4,45.1,30.05,SSE,157,3.2,-999.0,57,-99.99,,,0.00,Acu-Link.com,2013-05-05 13:53:00,
2013-05-05 10:08:00,62.6,44.2,30.04,SSE,157,2.7,-999.0,51,-99.99,,,0.00,Acu-Link.com,2013-05-05 14:08:00,
2013-05-05 10:23:00,63.0,41.3,30.04,SE,135,3.7,-999.0,45,-99.99,,,0.00,Acu-Link.com,2013-05-05 14:23:00,
2013-05-05 10:38:00,63.0,42.5,30.04,SSE,157,0.0,-999.0,47,-99.99,,,0.00,Acu-Link.com,2013-05-05 14:38:00,
2013-05-05 10:54:00,65.3,42.2,30.03,SSE,157,2.7,-999.0,43,-99.99,,,0.00,Acu-Link.com,2013-05-05 14:54:00,
2013-05-05 11:09:00,64.6,37.7,30.03,SE,135,3.2,-999.0,37,-99.99,,,0.00,Acu-Link.com,2013-05-05 15:09:00,
2013-05-05 11:24:00,66.7,41.0,30.02,East,90,5.3,-999.0,39,-99.99,,,0.00,Acu-Link.com,2013-05-05 15:24:00,
2013-05-05 11:39:00,66.9,37.6,30.01,SSE,157,2.2,-999.0,34,-99.99,,,0.00,Acu-Link.com,2013-05-05 15:39:00,
2013-05-05 11:54:00,67.1,32.9,30.01,SE,135,2.7,-999.0,28,-99.99,,,0.00,Acu-Link.com,2013-05-05 15:54:00,
2013-05-05 12:09:00,69.3,31.0,30.00,East,90,2.2,-999.0,24,-99.99,,,0.00,Acu-Link.com,2013-05-05 16:09:00,
2013-05-05 12:24:00,70.2,31.7,29.99,SSE,157,4.7,-999.0,24,-99.99,,,0.00,Acu-Link.com,2013-05-05 16:24:00,
2013-05-05 12:39:00,70.2,32.7,29.98,SE,135,5.8,-999.0,25,-99.99,,,0.00,Acu-Link.com,2013-05-05 16:39:00,
2013-05-05 12:55:00,72.0,33.2,29.97,SE,135,3.7,-999.0,24,-99.99,,,0.00,Acu-Link.com,2013-05-05 16:55:00,
2013-05-05 13:10:00,71.4,32.7,29.97,East,90,3.7,-999.0,24,-99.99,,,0.00,Acu-Link.com,2013-05-05 17:10:00,
2013-05-05 13:25:00,71.6,27.2,29.97,East,90,5.8,-999.0,19,-99.99,,,0.00,Acu-Link.com,2013-05-05 17:25:00,
2013-05-05 13:40:00,72.9,30.7,29.97,SSE,157,2.7,-999.0,21,-99.99,,,0.00,Acu-Link.com,2013-05-05 17:40:00,
2013-05-05 13:55:00,71.4,27.0,29.96,SE,135,5.8,-999.0,19,-99.99,,,0.00,Acu-Link.com,2013-05-05 17:55:00,
2013-05-05 14:10:00,73.6,28.8,29.95,SSE,157,3.2,-999.0,19,-99.99,,,0.00,Acu-Link.com,2013-05-05 18:10:00,
2013-05-05 14:25:00,72.7,29.3,29.95,SSE,157,3.2,-999.0,20,-99.99,,,0.00,Acu-Link.com,2013-05-05 18:25:00,
2013-05-05 14:41:00,73.9,30.3,29.94,SSE,157,4.7,-999.0,20,-99.99,,,0.00,Acu-Link.com,2013-05-05 18:41:00,
2013-05-05 14:56:00,73.0,30.8,29.94,SSE,157,6.8,-999.0,21,-99.99,,,0.00,Acu-Link.com,2013-05-05 18:56:00,
2013-05-05 15:11:00,73.4,27.3,29.93,ESE,112,6.3,-999.0,18,-99.99,,,0.00,Acu-Link.com,2013-05-05 19:11:00,
2013-05-05 15:26:00,73.8,27.6,29.93,ENE,67,3.7,-999.0,18,-99.99,,,0.00,Acu-Link.com,2013-05-05 19:26:00,
2013-05-05 15:41:00,73.4,27.3,29.93,ESE,112,3.2,-999.0,18,-99.99,,,0.00,Acu-Link.com,2013-05-05 19:41:00,
2013-05-05 15:56:00,73.8,27.6,29.92,NE,45,8.3,-999.0,18,-99.99,,,0.00,Acu-Link.com,2013-05-05 19:56:00,
2013-05-05 16:11:00,73.2,27.2,29.92,ESE,112,2.7,-999.0,18,-99.99,,,0.00,Acu-Link.com,2013-05-05 20:11:00,
2013-05-05 16:26:00,74.8,34.5,29.91,WSW,247,0.0,-999.0,23,-99.99,,,0.00,Acu-Link.com,2013-05-05 20:26:00,
2013-05-05 16:41:00,74.3,29.4,29.91,SSE,157,4.7,-999.0,19,-99.99,,,0.00,Acu-Link.com,2013-05-05 20:41:00,
2013-05-05 16:57:00,74.1,27.9,29.90,SE,135,3.2,-999.0,18,-99.99,,,0.00,Acu-Link.com,2013-05-05 20:57:00,
2013-05-05 17:12:00,75.7,29.2,29.90,SE,135,3.7,-999.0,18,-99.99,,,0.00,Acu-Link.com,2013-05-05 21:12:00,
2013-05-05 17:27:00,75.4,28.9,29.90,SSE,157,2.7,-999.0,18,-99.99,,,0.00,Acu-Link.com,2013-05-05 21:27:00,
2013-05-05 17:42:00,75.2,25.9,29.89,South,180,3.7,-999.0,16,-99.99,,,0.00,Acu-Link.com,2013-05-05 21:42:00,
2013-05-05 17:57:00,75.9,26.5,29.90,ESE,112,4.2,-999.0,16,-99.99,,,0.00,Acu-Link.com,2013-05-05 21:57:00,
2013-05-05 18:12:00,77.5,27.8,29.90,ESE,112,2.2,-999.0,16,-99.99,,,0.00,Acu-Link.com,2013-05-05 22:12:00,
2013-05-05 18:27:00,75.0,29.9,29.90,SSE,157,3.2,-999.0,19,-99.99,,,0.00,Acu-Link.com,2013-05-05 22:27:00,
2013-05-05 18:42:00,77.9,31.0,29.89,SSE,157,1.7,-999.0,18,-99.99,,,0.00,Acu-Link.com,2013-05-05 22:42:00,
2013-05-05 18:57:00,73.9,27.7,29.90,SSE,157,2.7,-999.0,18,-99.99,,,0.00,Acu-Link.com,2013-05-05 22:57:00,
2013-05-05 19:13:00,70.5,27.5,29.90,SSE,157,3.2,-999.0,20,-99.99,,,0.00,Acu-Link.com,2013-05-05 23:13:00,
2013-05-05 19:28:00,68.4,30.2,29.90,SE,135,0.0,-999.0,24,-99.99,,,0.00,Acu-Link.com,2013-05-05 23:28:00,
2013-05-05 19:43:00,66.7,29.8,29.90,ESE,112,2.2,-999.0,25,-99.99,,,0.00,Acu-Link.com,2013-05-05 23:43:00,
2013-05-05 19:58:00,65.1,29.4,29.91,ESE,112,5.3,-999.0,26,-99.99,,,0.00,Acu-Link.com,2013-05-05 23:58:00,
2013-05-05 20:13:00,63.0,35.6,29.91,ESE,112,1.1,-999.0,36,-99.99,,,0.00,Acu-Link.com,2013-05-06 00:13:00,
2013-05-05 20:28:00,60.4,33.3,29.92,ENE,67,2.2,-999.0,36,-99.99,,,0.00,Acu-Link.com,2013-05-06 00:28:00,
2013-05-05 20:43:00,59.2,34.3,29.92,SE,135,2.2,-999.0,39,-99.99,,,0.00,Acu-Link.com,2013-05-06 00:43:00,
2013-05-05 20:58:00,58.8,34.5,29.93,SSE,157,1.1,-999.0,40,-99.99,,,0.00,Acu-Link.com,2013-05-06 00:58:00,
2013-05-05 21:13:00,58.1,35.7,29.94,ESE,112,3.2,-999.0,43,-99.99,,,0.00,Acu-Link.com,2013-05-06 01:13:00,
2013-05-05 21:29:00,57.9,37.2,29.95,NE,45,2.2,-999.0,46,-99.99,,,0.00,Acu-Link.com,2013-05-06 01:29:00,
2013-05-05 21:44:00,57.4,37.9,29.96,ENE,67,2.7,-999.0,48,-99.99,,,0.00,Acu-Link.com,2013-05-06 01:44:00,
2013-05-05 21:59:00,56.1,37.7,29.96,East,90,2.7,-999.0,50,-99.99,,,0.00,Acu-Link.com,2013-05-06 01:59:00,
2013-05-05 22:14:00,55.2,37.9,29.96,NNE,22,1.7,-999.0,52,-99.99,,,0.00,Acu-Link.com,2013-05-06 02:14:00,
2013-05-05 22:29:00,54.0,38.7,29.97,ENE,67,3.2,-999.0,56,-99.99,,,0.00,Acu-Link.com,2013-05-06 02:29:00,
2013-05-05 22:44:00,53.8,39.8,29.97,SE,135,0.0,-999.0,59,-99.99,,,0.00,Acu-Link.com,2013-05-06 02:44:00,
2013-05-05 22:59:00,53.1,39.2,29.97,ESE,112,0.0,-999.0,59,-99.99,,,0.00,Acu-Link.com,2013-05-06 02:59:00,
2013-05-05 23:14:00,51.6,38.2,29.97,South,180,0.0,-999.0,60,-99.99,,,0.00,Acu-Link.com,2013-05-06 03:14:00,
2013-05-05 23:29:00,50.0,38.7,29.98,NE,45,0.0,-999.0,65,-99.99,,,0.00,Acu-Link.com,2013-05-06 03:29:00,
2013-05-05 23:45:00,48.7,38.6,29.98,ESE,112,0.0,-999.0,68,-99.99,,,0.00,Acu-Link.com,2013-05-06 03:45:00,